Station Historical Data
 
Daily Summary for November 17, 2017 Units:  English    Metric   Both
« Previous Day
Next Day »
Daily Weekly Monthly Yearly Custom
  Current: High: Low: Average:
Temperature: 62.5 °F 65.2 °F 36.8 °F 49.3 °F
Dew Point: 40.3 °F 41.7 °F 34.4 °F 37.9 °F
Humidity: 44% 93% 38% 69%
Wind Speed: 1.2mph 4.6mph 0.0mph 1.3mph
Wind Gust: 1.2mph 4.6mph - -
WindNW - - West
Pressure: 30.11 in 30.25 in 30.11 in -
Precipitation: 0.00 in      
Historical Graphs
 
 
Tabular Data for November 17, 2017
Time Temperature Dew Point Pressure Wind Wind Speed Wind Gust Humidity Rainfall Rate (Hourly) Conditions
00:00 45.4 °F 37.9 °F 30.15 in NNE 1.2 mph 1.2 mph 75% 0.00 in CLR
00:05 45.2 °F 37.7 °F 30.16 in NNE 1.2 mph   75% 0.00 in CLR
00:10 45.1 °F 38.0 °F 30.16 in NNE 1.2 mph   76% 0.00 in CLR
00:15 45.0 °F 37.9 °F 30.16 in Calm     76% 0.00 in CLR
00:21 44.9 °F 37.8 °F 30.16 in Calm     76% 0.00 in CLR
00:26 44.9 °F 38.1 °F 30.16 in NNE 1.2 mph   77% 0.00 in CLR
00:36 44.5 °F 38.1 °F 30.16 in NNE 1.2 mph   78% 0.00 in CLR
00:41 44.3 °F 37.9 °F 30.17 in NNE 1.2 mph   78% 0.00 in CLR
00:46 44.1 °F 37.7 °F 30.16 in Calm     78% 0.00 in CLR
00:51 44.1 °F 37.7 °F 30.16 in Calm     78% 0.00 in CLR
00:56 44.2 °F 37.8 °F 30.16 in Calm     78% 0.00 in CLR
01:01 44.3 °F 38.2 °F 30.16 in NE 1.2 mph   79% 0.00 in CLR
01:06 44.5 °F 38.1 °F 30.16 in ENE 1.2 mph   78% 0.00 in CLR
01:11 44.6 °F 37.8 °F 30.16 in ENE 1.2 mph   77% 0.00 in CLR
01:16 44.5 °F 38.1 °F 30.16 in ENE 1.2 mph   78% 0.00 in CLR
01:21 44.4 °F 38.3 °F 30.16 in Calm     79% 0.00 in CLR
01:27 44.3 °F 38.2 °F 30.16 in Calm     79% 0.00 in CLR
01:32 44.2 °F 38.1 °F 30.16 in Calm     79% 0.00 in CLR
01:37 44.1 °F 38.0 °F 30.16 in Calm     79% 0.00 in CLR
01:42 44.1 °F 38.0 °F 30.16 in Calm     79% 0.00 in CLR
01:47 44.1 °F 38.0 °F 30.16 in Calm     79% 0.00 in CLR
01:52 44.1 °F 38.0 °F 30.16 in ENE 1.2 mph   79% 0.00 in CLR
01:57 44.2 °F 38.1 °F 30.16 in East 1.2 mph   79% 0.00 in CLR
02:02 44.1 °F 38.0 °F 30.16 in East 1.2 mph   79% 0.00 in CLR
02:07 43.9 °F 37.8 °F 30.16 in East 1.2 mph   79% 0.00 in CLR
02:12 43.3 °F 37.5 °F 30.16 in East 1.2 mph   80% 0.00 in CLR
02:17 42.7 °F 37.6 °F 30.16 in Calm     82% 0.00 in CLR
02:22 42.2 °F 37.4 °F 30.16 in Calm     83% 0.00 in CLR
02:27 41.9 °F 37.4 °F 30.16 in Calm     84% 0.00 in CLR
02:32 41.5 °F 37.0 °F 30.16 in Calm     84% 0.00 in CLR
02:38 41.3 °F 37.1 °F 30.16 in Calm     85% 0.00 in CLR
02:43 41.1 °F 36.9 °F 30.16 in Calm     85% 0.00 in CLR
02:48 41.0 °F 36.8 °F 30.16 in Calm     85% 0.00 in CLR
02:53 40.9 °F 36.7 °F 30.16 in Calm     85% 0.00 in CLR
02:58 40.8 °F 36.6 °F 30.16 in Calm     85% 0.00 in CLR
03:03 40.7 °F 36.8 °F 30.16 in Calm     86% 0.00 in CLR
03:08 40.5 °F 36.6 °F 30.16 in Calm     86% 0.00 in CLR
03:13 40.3 °F 36.4 °F 30.17 in Calm     86% 0.00 in CLR
03:18 40.1 °F 36.2 °F 30.17 in Calm     86% 0.00 in CLR
03:23 40.0 °F 36.4 °F 30.17 in Calm     87% 0.00 in CLR
03:28 39.9 °F 36.3 °F 30.17 in Calm     87% 0.00 in CLR
03:33 39.8 °F 36.2 °F 30.16 in Calm     87% 0.00 in CLR
03:39 39.7 °F 36.4 °F 30.16 in Calm     88% 0.00 in CLR
03:44 39.6 °F 36.3 °F 30.16 in Calm     88% 0.00 in CLR
03:49 39.5 °F 36.2 °F 30.16 in Calm     88% 0.00 in CLR
03:54 39.5 °F 36.2 °F 30.16 in Calm     88% 0.00 in CLR
03:59 39.3 °F 36.0 °F 30.16 in Calm     88% 0.00 in CLR
04:04 39.2 °F 35.9 °F 30.16 in Calm     88% 0.00 in CLR
04:09 39.1 °F 35.8 °F 30.16 in Calm     88% 0.00 in CLR
04:14 39.0 °F 36.0 °F 30.16 in Calm     89% 0.00 in CLR
04:19 39.0 °F 36.0 °F 30.16 in Calm     89% 0.00 in CLR
04:24 39.0 °F 36.0 °F 30.16 in Calm     89% 0.00 in CLR
04:29 39.0 °F 36.0 °F 30.17 in Calm     89% 0.00 in CLR
04:34 39.0 °F 36.0 °F 30.17 in Calm     89% 0.00 in CLR
04:39 39.0 °F 36.0 °F 30.17 in Calm     89% 0.00 in CLR
04:45 39.0 °F 36.0 °F 30.17 in Calm     89% 0.00 in CLR
04:50 38.9 °F 35.9 °F 30.17 in Calm     89% 0.00 in CLR
04:55 38.8 °F 35.8 °F 30.17 in Calm     89% 0.00 in CLR
05:00 38.7 °F 35.7 °F 30.17 in Calm     89% 0.00 in CLR
05:05 38.6 °F 35.6 °F 30.16 in Calm     89% 0.00 in CLR
05:08 38.6 °F 35.6 °F 30.16 in Calm     89% 0.00 in CLR
05:13 38.5 °F 35.5 °F 30.16 in Calm     89% 0.00 in CLR
05:18 38.5 °F 35.8 °F 30.16 in Calm     90% 0.00 in CLR
05:24 38.4 °F 35.4 °F 30.16 in Calm     89% 0.00 in CLR
05:29 38.2 °F 35.2 °F 30.17 in Calm     89% 0.00 in CLR
05:34 38.1 °F 35.4 °F 30.17 in Calm     90% 0.00 in CLR
05:39 38.0 °F 35.3 °F 30.18 in Calm     90% 0.00 in CLR
05:44 37.9 °F 35.2 °F 30.18 in Calm     90% 0.00 in CLR
05:49 37.8 °F 35.1 °F 30.19 in Calm     90% 0.00 in CLR
05:54 37.6 °F 34.9 °F 30.19 in Calm     90% 0.00 in CLR
05:59 37.5 °F 34.8 °F 30.19 in Calm     90% 0.00 in CLR
06:04 37.4 °F 34.7 °F 30.19 in Calm     90% 0.00 in CLR
06:09 37.4 °F 34.7 °F 30.19 in Calm     90% 0.00 in CLR
06:14 37.4 °F 35.0 °F 30.20 in Calm     91% 0.00 in CLR
06:19 37.3 °F 34.6 °F 30.20 in Calm     90% 0.00 in CLR
06:25 37.3 °F 34.9 °F 30.20 in Calm     91% 0.00 in CLR
06:30 37.3 °F 34.9 °F 30.20 in Calm     91% 0.00 in CLR
06:35 37.2 °F 34.8 °F 30.20 in Calm     91% 0.00 in CLR
06:40 37.3 °F 34.9 °F 30.20 in Calm     91% 0.00 in CLR
06:45 37.2 °F 34.8 °F 30.20 in Calm     91% 0.00 in CLR
06:50 37.2 °F 34.8 °F 30.20 in Calm     91% 0.00 in CLR
06:55 37.2 °F 34.8 °F 30.20 in Calm     91% 0.00 in CLR
07:00 37.2 °F 34.8 °F 30.20 in Calm     91% 0.00 in CLR
07:10 37.0 °F 34.6 °F 30.20 in Calm     91% 0.00 in BKN
07:15 36.9 °F 34.5 °F 30.21 in Calm     91% 0.00 in BKN
07:20 36.9 °F 34.5 °F 30.21 in Calm     91% 0.00 in BKN
07:25 36.9 °F 34.5 °F 30.21 in Calm     91% 0.00 in BKN
07:31 36.8 °F 34.4 °F 30.22 in Calm     91% 0.00 in BKN
07:36 36.9 °F 34.5 °F 30.22 in Calm     91% 0.00 in BKN
07:41 36.9 °F 34.5 °F 30.22 in Calm     91% 0.00 in BKN
07:46 37.0 °F 34.9 °F 30.22 in Calm     92% 0.00 in BKN
07:51 37.1 °F 35.0 °F 30.22 in Calm     92% 0.00 in BKN
07:56 37.4 °F 35.3 °F 30.23 in Calm     92% 0.00 in BKN
08:01 37.8 °F 35.7 °F 30.23 in Calm     92% 0.00 in FEW
08:06 38.0 °F 35.9 °F 30.23 in Calm     92% 0.00 in FEW
08:11 38.5 °F 36.4 °F 30.23 in Calm     92% 0.00 in FEW
08:16 38.9 °F 37.0 °F 30.24 in Calm     93% 0.00 in FEW
08:21 39.3 °F 37.4 °F 30.24 in Calm     93% 0.00 in FEW
08:26 39.8 °F 37.9 °F 30.24 in Calm     93% 0.00 in FEW
08:31 40.4 °F 38.5 °F 30.24 in Calm     93% 0.00 in FEW
08:41 41.7 °F 39.8 °F 30.24 in Calm     93% 0.00 in FEW
08:47 42.5 °F 40.3 °F 30.24 in Calm     92% 0.00 in FEW
08:52 44.1 °F 39.6 °F 30.24 in Calm     84% 0.00 in FEW
08:57 45.6 °F 39.5 °F 30.24 in Calm     79% 0.00 in FEW
09:02 46.8 °F 38.9 °F 30.24 in Calm     74% 0.00 in FEW
09:07 47.4 °F 38.8 °F 30.24 in WNW 3.5 mph 3.5 mph 72% 0.00 in FEW
09:12 47.9 °F 38.9 °F 30.24 in West 3.5 mph   71% 0.00 in FEW
09:17 48.4 °F 38.7 °F 30.24 in West 3.5 mph 3.5 mph 69% 0.00 in FEW
09:22 48.7 °F 38.6 °F 30.24 in West 2.3 mph 2.3 mph 68% 0.00 in FEW
09:27 49.6 °F 39.1 °F 30.24 in WNW 2.3 mph   67% 0.00 in FEW
09:32 50.0 °F 37.9 °F 30.24 in WNW 3.5 mph 3.5 mph 63% 0.00 in FEW
09:37 50.2 °F 38.5 °F 30.24 in West 4.6 mph 4.6 mph 64% 0.00 in FEW
09:42 51.0 °F 38.0 °F 30.25 in West 4.6 mph 4.6 mph 61% 0.00 in FEW
09:47 51.6 °F 38.2 °F 30.25 in West 3.5 mph 3.5 mph 60% 0.00 in FEW
09:53 52.0 °F 38.5 °F 30.25 in West 3.5 mph 3.5 mph 60% 0.00 in FEW
09:58 52.5 °F 38.6 °F 30.25 in West 3.5 mph 3.5 mph 59% 0.00 in FEW
10:03 52.7 °F 37.4 °F 30.25 in West 3.5 mph 3.5 mph 56% 0.00 in FEW
10:08 53.2 °F 38.8 °F 30.25 in West 4.6 mph 4.6 mph 58% 0.00 in FEW
10:13 54.0 °F 39.1 °F 30.25 in West 4.6 mph   57% 0.00 in FEW
10:18 54.8 °F 38.9 °F 30.24 in West 3.5 mph 3.5 mph 55% 0.00 in FEW
10:23 55.7 °F 38.8 °F 30.24 in West 2.3 mph 2.3 mph 53% 0.00 in FEW
10:28 56.5 °F 39.1 °F 30.24 in WNW 2.3 mph   52% 0.00 in FEW
10:33 57.5 °F 39.5 °F 30.24 in WNW 2.3 mph 2.3 mph 51% 0.00 in FEW
10:38 57.5 °F 39.5 °F 30.23 in WNW 2.3 mph 2.3 mph 51% 0.00 in FEW
10:43 57.8 °F 39.3 °F 30.23 in WNW 2.3 mph 2.3 mph 50% 0.00 in FEW
10:44 57.8 °F 39.8 °F 30.24 in WNW 2.3 mph 2.3 mph 51% 0.00 in FEW
10:49 58.2 °F 39.1 °F 30.23 in WNW 3.5 mph 3.5 mph 49% 0.00 in FEW
10:54 58.2 °F 39.1 °F 30.23 in West 3.5 mph 3.5 mph 49% 0.00 in FEW
11:00 58.3 °F 39.2 °F 30.23 in West 3.5 mph 3.5 mph 49% 0.00 in FEW
11:05 58.5 °F 38.9 °F 30.23 in West 2.3 mph 2.3 mph 48% 0.00 in FEW
11:15 59.2 °F 39.5 °F 30.22 in WNW 2.3 mph 2.3 mph 48% 0.00 in FEW
11:20 59.5 °F 39.2 °F 30.22 in West 2.3 mph   47% 0.00 in FEW
11:25 59.7 °F 38.9 °F 30.22 in WNW 3.5 mph 3.5 mph 46% 0.00 in FEW
11:30 59.6 °F 38.2 °F 30.22 in WNW 4.6 mph 4.6 mph 45% 0.00 in FEW
11:35 59.7 °F 38.9 °F 30.22 in West 4.6 mph   46% 0.00 in FEW
11:50 60.3 °F 39.4 °F 30.21 in West 3.5 mph 3.5 mph 46% 0.00 in FEW
11:55 60.6 °F 38.6 °F 30.21 in WNW 4.6 mph 4.6 mph 44% 0.00 in FEW
12:00 60.8 °F 39.3 °F 30.21 in NW 4.6 mph 4.6 mph 45% 0.00 in FEW
12:05 61.1 °F 39.0 °F 30.20 in NW 3.5 mph   44% 0.00 in FEW
12:11 61.3 °F 38.6 °F 30.20 in NW 3.5 mph   43% 0.00 in FEW
12:16 61.6 °F 38.9 °F 30.20 in NW 3.5 mph 3.5 mph 43% 0.00 in FEW
12:21 61.8 °F 40.2 °F 30.19 in NW 3.5 mph   45% 0.00 in FEW
12:26 62.4 °F 40.8 °F 30.19 in WNW 2.3 mph 2.3 mph 45% 0.00 in FEW
12:31 63.0 °F 40.1 °F 30.18 in WNW 2.3 mph   43% 0.00 in FEW
12:36 63.2 °F 40.3 °F 30.17 in NW 2.3 mph   43% 0.00 in FEW
12:41 63.3 °F 41.6 °F 30.17 in NW 2.3 mph 2.3 mph 45% 0.00 in FEW
12:46 63.7 °F 40.2 °F 30.17 in NW 3.5 mph   42% 0.00 in FEW
12:51 63.9 °F 40.3 °F 30.17 in NW 3.5 mph 3.5 mph 42% 0.00 in FEW
12:56 64.1 °F 39.9 °F 30.17 in NNW 1.2 mph 1.2 mph 41% 0.00 in FEW
13:01 64.4 °F 41.4 °F 30.16 in NW 1.2 mph 1.2 mph 43% 0.00 in FEW
13:07 64.8 °F 39.2 °F 30.17 in NW 3.5 mph 3.5 mph 39% 0.00 in FEW
13:12 65.0 °F 38.8 °F 30.17 in NW 3.5 mph 3.5 mph 38% 0.00 in FEW
13:17 65.2 °F 39.6 °F 30.16 in NW 3.5 mph   39% 0.00 in FEW
13:22 64.8 °F 39.2 °F 30.16 in WNW 3.5 mph   39% 0.00 in FEW
13:27 64.7 °F 39.2 °F 30.16 in NW 3.5 mph 3.5 mph 39% 0.00 in FEW
13:32 64.6 °F 39.7 °F 30.16 in WNW 3.5 mph 3.5 mph 40% 0.00 in FEW
13:37 64.3 °F 39.4 °F 30.16 in West 2.3 mph 2.3 mph 40% 0.00 in FEW
13:42 64.3 °F 40.1 °F 30.16 in WNW 2.3 mph 2.3 mph 41% 0.00 in FEW
13:47 64.5 °F 39.6 °F 30.16 in NW 1.2 mph 1.2 mph 40% 0.00 in FEW
13:52 64.7 °F 39.2 °F 30.16 in NNW 2.3 mph 2.3 mph 39% 0.00 in FEW
13:57 64.6 °F 39.1 °F 30.16 in NW 2.3 mph   39% 0.00 in FEW
14:02 64.4 °F 38.9 °F 30.16 in WNW 2.3 mph 2.3 mph 39% 0.00 in FEW
14:07 64.3 °F 39.4 °F 30.16 in WNW 3.5 mph   40% 0.00 in FEW
14:12 64.2 °F 38.7 °F 30.15 in NW 3.5 mph   39% 0.00 in FEW
14:18 64.0 °F 38.5 °F 30.15 in NNW 1.2 mph   39% 0.00 in FEW
14:23 64.2 °F 39.4 °F 30.15 in NW 1.2 mph 1.2 mph 40% 0.00 in FEW
14:28 64.5 °F 40.3 °F 30.14 in NW 1.2 mph   41% 0.00 in FEW
14:33 64.5 °F 39.6 °F 30.14 in NW 2.3 mph 2.3 mph 40% 0.00 in FEW
14:38 64.3 °F 39.4 °F 30.14 in NW 2.3 mph 2.3 mph 40% 0.00 in FEW
14:43 64.1 °F 39.9 °F 30.14 in West 2.3 mph   41% 0.00 in FEW
14:48 64.0 °F 40.4 °F 30.13 in West 3.5 mph 3.5 mph 42% 0.00 in FEW
14:53 63.9 °F 39.7 °F 30.13 in West 3.5 mph 3.5 mph 41% 0.00 in FEW
14:58 63.9 °F 40.3 °F 30.13 in WNW 2.3 mph   42% 0.00 in FEW
15:03 63.8 °F 38.4 °F 30.13 in NW 2.3 mph   39% 0.00 in SCT
15:08 63.8 °F 39.6 °F 30.12 in WNW 1.2 mph   41% 0.00 in SCT
15:13 63.7 °F 40.8 °F 30.12 in NW 1.2 mph 1.2 mph 43% 0.00 in SCT
15:18 63.6 °F 40.7 °F 30.12 in NNW 1.2 mph   43% 0.00 in SCT
15:23 63.5 °F 41.2 °F 30.12 in NNW 1.2 mph   44% 0.00 in SCT
15:29 63.5 °F 41.2 °F 30.12 in NNW 2.3 mph   44% 0.00 in SCT
15:34 63.5 °F 40.6 °F 30.12 in NW 2.3 mph   43% 0.00 in SCT
15:39 63.6 °F 40.7 °F 30.11 in NW 1.2 mph 1.2 mph 43% 0.00 in SCT
15:44 63.6 °F 40.1 °F 30.11 in NNW 1.2 mph 1.2 mph 42% 0.00 in SCT
15:49 63.7 °F 39.5 °F 30.11 in NW 1.2 mph   41% 0.00 in SCT
15:54 63.8 °F 41.5 °F 30.11 in NW 1.2 mph   44% 0.00 in SCT
15:59 63.8 °F 40.3 °F 30.11 in Calm   0.2 mph 42% 0.00 in SCT
16:04 63.5 °F 41.2 °F 30.11 in NW 1.2 mph   44% 0.00 in SCT
16:09 63.2 °F 41.5 °F 30.12 in NW 1.2 mph   45% 0.00 in SCT
16:14 62.8 °F 41.7 °F 30.11 in NW 1.2 mph   46% 0.00 in CLR
16:19 62.7 °F 40.5 °F 30.12 in NW 1.2 mph 1.2 mph 44% 0.00 in CLR
16:24 62.5 °F 40.3 °F 30.11 in NW 1.2 mph 1.2 mph 44% 0.00 in CLR
Piedmont Bend
Compliments of Weather Underground - 2 mb